Location: Washington
(38.8950°N, 77.0370°W)
Time: 01:50:06
(UTC-05:00)

Amateur Radio Satellites - All Passes

Search period start: 28 November 2014 01:20
Search period end: 29 November 2014 01:20
Location: Washington, 38.8950°N, 77.0370°W

Satellite Date Start Highest point End Downlink Frequencies (MHz)
Time Altitude Azimuth
YUBILEINY 28 Nov 01:22:27 01:30:03 34° 85° (E) 01:37:38 435.215
KKS-1 28 Nov 01:30:15 01:34:30 46° 72° (ENE) 01:38:46 437.445
ITAMSAT 1 28 Nov 01:33:20 01:37:25 23° 95° (E) 01:41:27 435.822/435.867
BEESAT 28 Nov 01:38:18 01:42:28 30° 263° (W) 01:46:40 436.000
SO-50 28 Nov 01:52:06 01:54:14 13° 107° (ESE) 01:56:23 436.795
Oscar 19 28 Nov 02:14:06 02:19:07 53° 288° (WNW) 02:24:08 437.125/150
Gurwin Techsat 1B 28 Nov 02:17:20 02:22:13 36° 97° (E) 02:27:03 435.225
STARS 28 Nov 02:21:23 02:25:45 70° 258° (WSW) 02:30:09 437.465
SRMSAT 28 Nov 02:34:10 02:35:48 11° 184° (S) 02:37:26 437.500
HORYU 2 28 Nov 02:41:24 02:45:05 24° 96° (E) 02:48:45 437.375
ISS 28 Nov 02:47:11 02:47:39 10° 9° (N) 02:48:06 145.825
RS-15 28 Nov 02:54:09 03:03:20 30° 256° (WSW) 03:12:52 29.354- 29.394
BEESAT 3 28 Nov 03:00:46 03:01:51 11° 41° (NE) 03:02:56 437.485
KKS-1 28 Nov 03:08:51 03:11:22 15° 268° (W) 03:13:54 437.445
PCSat 28 Nov 03:10:48 03:14:46 20° 48° (NE) 03:18:44 145.827
ITAMSAT 1 28 Nov 03:12:12 03:17:00 40° 290° (WNW) 03:21:46 435.822/435.867
BEESAT 2 28 Nov 03:17:05 03:19:20 14° 44° (NE) 03:21:33 435.950
YUBILEINY 28 Nov 03:18:03 03:26:29 50° 283° (WNW) 03:34:57 435.215
SO-50 28 Nov 03:29:44 03:34:11 61° 304° (NW) 03:38:48 436.795
Gurwin Techsat 1B 28 Nov 03:57:35 04:01:59 27° 293° (WNW) 04:06:23 435.225
AIST 2 28 Nov 04:00:51 04:03:55 19° 46° (NE) 04:06:58 435.215
AO-7 28 Nov 04:14:07 04:22:24 61° 104° (ESE) 04:30:37 29.400- 29.500
HORYU 2 28 Nov 04:17:50 04:21:43 29° 291° (WNW) 04:25:36 437.375
ISS 28 Nov 04:22:17 04:25:10 27° 29° (NNE) 04:28:03 145.825
MOZHAYETS 4 28 Nov 04:26:43 04:31:18 84° 258° (WSW) 04:35:57
JAS-2 28 Nov 04:35:19 04:41:17 31° 93° (E) 04:46:36 435.910
O/OREOS (USA 219) 28 Nov 04:35:39 04:39:02 22° 102° (ESE) 04:42:26 437.305
BEESAT 3 28 Nov 04:36:31 04:40:44 86° 59° (ENE) 04:44:52 437.485
CUBESAT XI-V 28 Nov 04:42:13 04:42:32 10° 61° (ENE) 04:42:51 437.345
PRISM 28 Nov 04:50:33 04:54:16 31° 70° (ENE) 04:58:01 437.425
PCSat 28 Nov 04:53:16 04:58:37 63° 246° (WSW) 05:03:57 145.827
BEESAT 2 28 Nov 04:53:53 04:58:05 69° 241° (WSW) 05:02:12 435.950
CUTE-I 28 Nov 05:11:41 05:14:06 13° 90° (E) 05:16:31 437.470
AIST 1 28 Nov 05:19:46 05:21:08 11° 69° (ENE) 05:22:29
AIST 2 28 Nov 05:38:40 05:42:48 47° 244° (WSW) 05:46:52 435.215
ISS 28 Nov 05:58:49 06:01:49 33° 225° (SW) 06:04:49 145.825
STRAND 1 28 Nov 06:02:29 06:07:36 71° 74° (ENE) 06:12:44 437.568
AO-7 28 Nov 06:07:40 06:14:38 31° 302° (WNW) 06:21:37 29.400- 29.500
Cubesat XI-IV 28 Nov 06:08:42 06:13:52 49° 100° (E) 06:18:59 437.490
O/OREOS (USA 219) 28 Nov 06:14:10 06:18:13 33° 298° (WNW) 06:22:16 437.305
CUBESAT XI-V 28 Nov 06:14:31 06:19:14 85° 257° (WSW) 06:24:00 437.345
JAS-2 28 Nov 06:20:00 06:26:27 42° 293° (WNW) 06:32:11 435.910
PRISM 28 Nov 06:26:44 06:29:51 20° 265° (W) 06:32:59 437.425
CUTE-I 28 Nov 06:49:22 06:54:40 71° 286° (WNW) 06:59:55 437.470
AIST 1 28 Nov 06:54:54 06:59:12 57° 266° (W) 07:03:26
GONETS M04 28 Nov 07:12:37 07:20:30 39° 86° (E) 07:28:24
STRAND 1 28 Nov 07:45:09 07:47:15 12° 270° (W) 07:49:23 437.568
Cubesat XI-IV 28 Nov 07:49:44 07:53:34 21° 296° (WNW) 07:57:24 437.490
HO-68 28 Nov 07:55:11 08:00:22 21° 93° (E) 08:05:32 435.675
SEEDS 28 Nov 08:09:52 08:12:13 14° 92° (E) 08:14:33 437.485
AAUSAT CUBESAT 2 28 Nov 08:21:45 08:24:05 14° 92° (E) 08:26:24 437.432
COMPASS 1 28 Nov 08:37:47 08:41:19 25° 95° (E) 08:44:51 437.405
GOMX 1 28 Nov 08:38:57 08:42:23 24° 96° (E) 08:45:54 467.674
CANX-2 28 Nov 08:39:59 08:44:04 41° 98° (E) 08:48:07 2200.000
DX 1 28 Nov 08:53:50 08:56:08 14° 92° (E) 08:58:25 434.975-435.025
QB50P1 28 Nov 08:59:04 09:00:17 11° 63° (ENE) 09:01:31 145.935-145.965
CUBEBUG 2 28 Nov 09:00:34 09:01:59 11° 91° (E) 09:03:24 437.445
GONETS M04 28 Nov 09:08:49 09:17:07 45° 285° (WNW) 09:25:30
CUTE 1.7 + AOD 2 28 Nov 09:14:09 09:18:28 86° 283° (WNW) 09:22:46 437.475
BRITE-PL 28 Nov 09:19:35 09:23:44 79° 284° (WNW) 09:27:59 437.365/2234.400
POPSAT HIP 1 28 Nov 09:22:05 09:25:13 20° 68° (ENE) 09:28:21 437.405
DOVE 4 28 Nov 09:22:50 09:26:59 58° 101° (E) 09:31:17 437.250
TIGRISAT 28 Nov 09:23:27 09:27:08 30° 70° (ENE) 09:30:50 435.000
ZACube-1 28 Nov 09:24:04 09:26:42 16° 93° (E) 09:29:22 437.345
VELOX 1 28 Nov 09:34:59 09:36:49 12° 91° (E) 09:38:38 145.980
UNISAT 6 28 Nov 09:38:07 09:42:10 44° 73° (ENE) 09:46:14 437.425
CINEMA 3 28 Nov 09:40:21 09:44:32 54° 100° (E) 09:48:51 145.822/145.860
HO-68 28 Nov 09:41:28 09:48:35 68° 289° (WNW) 09:55:39 435.675
SEEDS 28 Nov 09:44:11 09:48:15 44° 287° (WNW) 09:52:20 437.485
DELFI C3 28 Nov 09:48:20 09:52:27 61° 101° (E) 09:56:32 145.870
UKube-1 28 Nov 09:50:10 09:54:29 61° 101° (ESE) 09:58:45 .
AAUSAT CUBESAT 2 28 Nov 09:55:56 09:59:58 43° 287° (WNW) 10:03:59 437.432
POLYITAN 1 28 Nov 09:56:05 10:00:11 49° 73° (ENE) 10:04:17 437.675
50 SAT 28 Nov 09:56:05 09:58:46 17° 94° (E) 10:01:27 437.505
QB50P2 28 Nov 09:57:03 10:01:10 50° 74° (ENE) 10:05:17 145.880/145.840
FUNcube-1 28 Nov 09:57:18 10:01:17 37° 98° (E) 10:05:19 145.935
Oscar 11 28 Nov 09:59:31 10:03:53 84° 284° (WNW) 10:08:15 145.826/435.025
AISAT 28 Nov 10:01:15 10:04:56 25° 96° (E) 10:08:35 437.250
DUCHIFAT 1 28 Nov 10:01:21 10:05:30 56° 74° (ENE) 10:09:40 145.980
ANTELSAT 28 Nov 10:06:56 10:11:12 84° 257° (WSW) 10:15:30 437.575/2403.000
COMPASS 1 28 Nov 10:13:28 10:16:58 25° 291° (WNW) 10:20:27 437.405
CANX-2 28 Nov 10:16:56 10:19:40 17° 294° (WNW) 10:22:25 2200.000
GOMX 1 28 Nov 10:17:02 10:20:28 25° 290° (WNW) 10:23:58 467.674
NANOSAT C BR1 28 Nov 10:21:06 10:25:21 84° 257° (WSW) 10:29:37 145.865
HUMSAT D 28 Nov 10:23:18 10:27:19 44° 99° (E) 10:31:22 437.325/437.525
SO-50 28 Nov 10:23:27 10:25:52 14° 40° (NE) 10:28:17 436.795
DX 1 28 Nov 10:28:27 10:32:37 47° 288° (WNW) 10:36:45 434.975-435.025
BUGSAT 1 28 Nov 10:28:35 10:32:51 84° 257° (WSW) 10:37:05 437.445
UWE-3 28 Nov 10:29:37 10:33:54 76° 284° (WNW) 10:38:16 435.000/436.395/437.385
QB50P1 28 Nov 10:31:25 10:35:38 63° 259° (W) 10:39:52 145.935-145.965
CUBEBUG 2 28 Nov 10:34:48 10:38:59 56° 285° (WNW) 10:43:17 437.445
POPSAT HIP 1 28 Nov 10:57:06 11:00:55 32° 263° (W) 11:04:44 437.405
ZACube-1 28 Nov 10:59:14 11:03:14 40° 287° (WNW) 11:07:18 437.345
TIGRISAT 28 Nov 11:00:41 11:03:55 21° 265° (W) 11:07:09 435.000
DOVE 4 28 Nov 11:02:52 11:04:19 12° 295° (WNW) 11:05:48 437.250
VELOX 1 28 Nov 11:09:24 11:13:44 55° 287° (WNW) 11:18:01 145.980
UNISAT 6 28 Nov 11:16:56 11:19:12 14° 268° (W) 11:21:28 437.425
ESTCUBE 1 28 Nov 11:17:02 11:21:34 67° 101° (ESE) 11:26:03 437.505/2401.250
CINEMA 3 28 Nov 11:19:27 11:21:20 13° 295° (WNW) 11:23:14 145.822/145.860
SPROUT 28 Nov 11:19:31 11:21:45 14° 92° (E) 11:23:57 437.525
DELFI C3 28 Nov 11:26:05 11:27:13 11° 296° (WNW) 11:28:20 145.870
UKube-1 28 Nov 11:28:27 11:30:06 12° 297° (WNW) 11:31:45 .
50 SAT 28 Nov 11:30:28 11:34:10 34° 288° (WNW) 11:37:52 437.505
HO-68 28 Nov 11:32:17 11:34:58 12° 308° (NW) 11:37:38 435.675
POLYITAN 1 28 Nov 11:34:29 11:36:24 13° 268° (W) 11:38:19 437.675
FUNcube-1 28 Nov 11:34:29 11:37:22 18° 293° (WNW) 11:40:17 145.935
YUBILEINY 28 Nov 11:35:15 11:39:44 15° 61° (ENE) 11:44:12 435.215
QB50P2 28 Nov 11:35:33 11:37:22 12° 268° (W) 11:39:11 145.880/145.840
AISAT 28 Nov 11:37:47 11:41:30 27° 291° (WNW) 11:45:12 437.250
DUCHIFAT 1 28 Nov 11:40:23 11:41:42 11° 269° (W) 11:43:00 145.980
CUBEBUG 1 28 Nov 11:40:26 11:44:47 69° 285° (WNW) 11:49:04 437.445
Oscar 19 28 Nov 11:51:50 11:55:46 23° 66° (ENE) 11:59:43 437.125/150
HUMSAT D 28 Nov 12:00:24 12:02:46 15° 294° (WNW) 12:05:09 437.325/437.525
SO-50 28 Nov 12:02:15 12:07:09 84° 59° (ENE) 12:12:04 436.795
DANDE 28 Nov 12:16:53 12:19:07 23° 95° (E) 12:21:15 436.750
AUBIESAT-1 28 Nov 12:22:47 12:24:35 12° 94° (E) 12:26:21 437.475
M-CUBED/EXP-1 PRIME 28 Nov 12:28:54 12:31:51 16° 96° (E) 12:34:44 437.505
TISAT 1 28 Nov 12:35:45 12:39:56 65° 285° (WNW) 12:44:05 437.305
ITAMSAT 1 28 Nov 12:50:01 12:54:36 32° 68° (ENE) 12:59:10 435.822/435.867
SPROUT 28 Nov 12:53:58 12:58:04 46° 287° (WNW) 13:02:09 437.525
ESTCUBE 1 28 Nov 12:56:08 12:57:51 12° 297° (WNW) 12:59:34 437.505/2401.250
VERMONT LUNAR 28 Nov 12:58:38 13:01:52 32° 153° (SSE) 13:05:07 437.305
PHONESAT 2.4 28 Nov 12:58:43 13:01:44 24° 149° (SSE) 13:04:45 2401.200-2431.200
ITUPSAT 1 28 Nov 12:59:19 13:03:29 29° 96° (E) 13:07:36 437.325
SWISSCUBE 28 Nov 13:08:56 13:13:27 40° 98° (E) 13:17:55 437.505
CUSAT 1 28 Nov 13:22:47 13:24:34 16° 286° (WNW) 13:26:19 437.405
AO-7 28 Nov 13:23:51 13:28:19 16° 49° (NE) 13:32:48 29.400- 29.500
YUBILEINY 28 Nov 13:29:19 13:38:04 79° 82° (E) 13:46:44 435.215
Oscar 19 28 Nov 13:30:03 13:34:50 41° 262° (W) 13:39:40 437.125/150
Gurwin Techsat 1B 28 Nov 13:37:07 13:42:14 51° 72° (ENE) 13:47:22 435.225
BEESAT 28 Nov 13:39:13 13:44:02 78° 103° (ESE) 13:48:48 436.000
HORYU 2 28 Nov 13:39:29 13:42:43 20° 67° (ENE) 13:45:59 437.375
SO-50 28 Nov 13:45:56 13:47:01 11° 254° (WSW) 13:48:06 436.795
AUBIESAT-1 28 Nov 13:55:07 14:00:02 73° 290° (WNW) 14:04:45 437.475
M-CUBED/EXP-1 PRIME 28 Nov 14:02:21 14:07:12 57° 292° (WNW) 14:11:52 437.505
STARS 28 Nov 14:13:24 14:16:57 23° 95° (E) 14:20:28 437.465
MaSat-1 28 Nov 14:14:44 14:17:39 57° 113° (ESE) 14:20:20 437.345
ITAMSAT 1 28 Nov 14:29:31 14:34:02 29° 264° (W) 14:38:34 435.822/435.867
PHONESAT 2.4 28 Nov 14:36:31 14:40:14 83° 165° (SSE) 14:43:58 2401.200-2431.200
VERMONT LUNAR 28 Nov 14:36:33 14:40:10 83° 348° (NNW) 14:43:48 437.305
ITUPSAT 1 28 Nov 14:37:12 14:41:17 28° 292° (WNW) 14:45:20 437.325
O/OREOS (USA 219) 28 Nov 14:45:48 14:49:53 34° 63° (ENE) 14:53:58 437.305
JAS-2 28 Nov 14:46:47 14:51:15 17° 56° (NE) 14:55:44 435.910
SWISSCUBE 28 Nov 14:47:29 14:51:01 21° 294° (WNW) 14:54:32 437.505
KKS-1 28 Nov 14:59:10 15:03:35 70° 285° (WNW) 15:07:59 437.445
RS-15 28 Nov 15:02:40 15:13:09 53° 111° (ESE) 15:23:32 29.354- 29.394
AO-7 28 Nov 15:11:26 15:19:40 72° 69° (ENE) 15:27:57 29.400- 29.500
HORYU 2 28 Nov 15:15:07 15:19:09 35° 262° (W) 15:23:14 437.375
Gurwin Techsat 1B 28 Nov 15:18:47 15:22:27 19° 267° (W) 15:26:08 435.225
BEESAT 28 Nov 15:19:41 15:21:11 11° 299° (WNW) 15:22:42 436.000
YUBILEINY 28 Nov 15:28:04 15:33:46 20° 281° (W) 15:39:27 435.215
STARS 28 Nov 15:49:37 15:53:24 29° 291° (WNW) 15:57:11 437.465
VERMONT LUNAR 28 Nov 16:15:10 16:18:47 69° 5° (N) 16:22:24 437.305
PHONESAT 2.4 28 Nov 16:15:26 16:19:08 66° 2° (N) 16:22:50 2401.200-2431.200
MOZHAYETS 4 28 Nov 16:23:51 16:27:45 26° 95° (E) 16:31:36
O/OREOS (USA 219) 28 Nov 16:25:44 16:29:02 21° 259° (WSW) 16:32:21 437.305
JAS-2 28 Nov 16:27:21 16:35:01 78° 74° (ENE) 16:42:53 435.910
CUTE-I 28 Nov 16:31:49 16:35:46 21° 64° (ENE) 16:39:42 437.470
AO-7 28 Nov 17:06:54 17:13:04 23° 266° (W) 17:19:19 29.400- 29.500
RS-15 28 Nov 17:15:17 17:25:37 46° 314° (NW) 17:36:03 29.354- 29.394
GONETS M04 28 Nov 17:25:18 17:30:42 17° 63° (ENE) 17:36:04
Cubesat XI-IV 28 Nov 17:29:28 17:34:48 73° 74° (ENE) 17:40:10 437.490
PCSat 28 Nov 17:52:03 17:55:54 20° 106° (ESE) 17:59:46 145.827
VERMONT LUNAR 28 Nov 17:53:42 17:57:14 52° 202° (SSW) 18:00:46 437.305
PHONESAT 2.4 28 Nov 17:54:17 17:57:59 69° 199° (SSW) 18:01:41 2401.200-2431.200
MOZHAYETS 4 28 Nov 18:00:54 18:04:55 29° 291° (WNW) 18:08:56
PRISM 28 Nov 18:10:01 18:14:14 63° 101° (ESE) 18:18:23 437.425
CUTE-I 28 Nov 18:10:17 18:15:27 48° 260° (W) 18:20:38 437.470
CUBESAT XI-V 28 Nov 18:13:21 18:17:16 26° 95° (E) 18:21:08 437.345
STRAND 1 28 Nov 18:14:59 18:19:13 26° 95° (E) 18:23:25 437.568
JAS-2 28 Nov 18:15:12 18:20:40 21° 271° (W) 18:26:15 435.910
HO-68 28 Nov 18:24:37 18:28:28 16° 54° (NE) 18:32:20 435.675
BEESAT 3 28 Nov 18:31:13 18:34:23 22° 111° (ESE) 18:37:36 437.485
BEESAT 2 28 Nov 18:48:35 18:52:12 31° 114° (ESE) 18:55:53 435.950
BRITE-PL 28 Nov 18:55:04 18:55:55 10° 64° (ENE) 18:56:44 437.365/2234.400
Cubesat XI-IV 28 Nov 19:13:00 19:15:23 13° 270° (W) 19:17:47 437.490
GONETS M04 28 Nov 19:19:58 19:28:51 87° 83° (E) 19:37:37
AIST 1 28 Nov 19:22:50 19:27:14 89° 97° (E) 19:31:40
COMPASS 1 28 Nov 19:29:34 19:32:06 16° 66° (ENE) 19:34:38 437.405
CANX-2 28 Nov 19:32:32 19:36:00 26° 69° (ENE) 19:39:30 2200.000
PCSat 28 Nov 19:33:36 19:38:52 52° 302° (WNW) 19:44:11 145.827
VERMONT LUNAR 28 Nov 19:33:38 19:35:11 12° 216° (SW) 19:36:44 437.305
PHONESAT 2.4 28 Nov 19:33:48 19:36:23 18° 213° (SSW) 19:38:57 2401.200-2431.200
RS-15 28 Nov 19:34:51 19:41:54 19° 346° (NNW) 19:49:03 29.354- 29.394
AIST 2 28 Nov 19:35:45 19:39:48 49° 116° (ESE) 19:43:57 435.215
GOMX 1 28 Nov 19:46:17 19:50:07 26° 70° (ENE) 19:53:46 467.674
PRISM 28 Nov 19:47:58 19:49:13 11° 297° (WNW) 19:50:27 437.425
DX 1 28 Nov 19:49:40 19:51:17 12° 63° (ENE) 19:52:54 434.975-435.025
CUBESAT XI-V 28 Nov 19:50:40 19:54:39 29° 291° (WNW) 19:58:36 437.345
STRAND 1 28 Nov 19:53:50 19:58:25 34° 291° (WNW) 20:02:58 437.568
CUTE 1.7 + AOD 2 28 Nov 20:06:01 20:10:08 57° 75° (ENE) 20:14:17 437.475
HO-68 28 Nov 20:07:53 20:15:04 81° 72° (ENE) 20:22:18 435.675
BEESAT 3 28 Nov 20:08:43 20:12:25 32° 308° (NW) 20:16:11 437.485
ZACube-1 28 Nov 20:21:12 20:22:27 11° 64° (ENE) 20:23:42 437.345
BEESAT 2 28 Nov 20:27:05 20:30:30 24° 311° (NW) 20:33:57 435.950
DOVE 4 28 Nov 20:27:35 20:32:01 52° 74° (ENE) 20:36:13 437.250
BRITE-PL 28 Nov 20:28:56 20:33:54 80° 258° (WSW) 20:38:30 437.365/2234.400
VELOX 1 28 Nov 20:33:11 20:34:22 11° 62° (ENE) 20:35:32 145.980
SEEDS 28 Nov 20:35:07 20:39:18 75° 258° (WSW) 20:43:31 437.485
DELFI C3 28 Nov 20:36:16 20:39:54 32° 71° (ENE) 20:43:34 145.870
CINEMA 3 28 Nov 20:41:28 20:45:34 43° 73° (ENE) 20:49:34 145.822/145.860
UKube-1 28 Nov 20:44:10 20:48:19 45° 72° (ENE) 20:52:28 .
AAUSAT CUBESAT 2 28 Nov 20:45:49 20:49:57 76° 258° (WSW) 20:54:09 437.432
FUNcube-1 28 Nov 20:52:55 20:56:22 25° 70° (ENE) 20:59:48 145.935
Oscar 11 28 Nov 20:53:03 20:57:17 63° 75° (ENE) 21:01:34 145.826/435.025
AISAT 28 Nov 20:58:52 21:02:15 22° 67° (ENE) 21:05:38 437.250
COMPASS 1 28 Nov 21:03:34 21:07:29 40° 262° (W) 21:11:27 437.405
ISS 28 Nov 21:04:13 21:06:04 14° 129° (SE) 21:07:56 145.825
CANX-2 28 Nov 21:08:26 21:11:52 24° 265° (W) 21:15:21 2200.000
HUMSAT D 28 Nov 21:15:04 21:18:32 27° 70° (ENE) 21:22:01 437.325/437.525
AIST 2 28 Nov 21:15:46 21:18:43 18° 314° (NW) 21:21:42 435.215
GONETS M04 28 Nov 21:19:12 21:24:23 17° 282° (WNW) 21:29:34
DX 1 28 Nov 21:22:38 21:26:58 64° 258° (WSW) 21:31:20 434.975-435.025
GOMX 1 28 Nov 21:24:06 21:28:09 28° 263° (W) 21:32:01 467.674
UWE-3 28 Nov 21:25:56 21:30:08 75° 76° (ENE) 21:34:18 435.000/436.395/437.385
CUBEBUG 2 28 Nov 21:32:08 21:36:23 79° 258° (WSW) 21:40:34 437.445
UNISAT 6 28 Nov 21:33:58 21:34:59 11° 91° (E) 21:36:01 437.425
CUTE 1.7 + AOD 2 28 Nov 21:45:21 21:46:25 11° 270° (W) 21:47:29 437.475
RS-15 28 Nov 21:52:16 22:00:16 22° 23° (NNE) 22:08:26 29.354- 29.394
ZACube-1 28 Nov 21:54:11 21:58:20 59° 260° (W) 22:02:27 437.345
HO-68 28 Nov 21:59:08 22:03:29 17° 269° (W) 22:07:51 435.675
ANTELSAT 28 Nov 22:00:51 22:04:25 23° 95° (E) 22:08:00 437.575/2403.000
VELOX 1 28 Nov 22:05:52 22:10:20 72° 258° (WSW) 22:14:49 145.980
DOVE 4 28 Nov 22:07:57 22:10:01 13° 268° (W) 22:12:02 437.250
NANOSAT C BR1 28 Nov 22:09:01 22:11:48 17° 93° (E) 22:14:34 145.865
DELFI C3 28 Nov 22:12:28 22:15:16 18° 266° (W) 22:18:05 145.870
BUGSAT 1 28 Nov 22:14:06 22:16:27 15° 93° (E) 22:18:46 437.445
SPROUT 28 Nov 22:15:00 22:15:33 10° 63° (ENE) 22:16:06 437.525
ESTCUBE 1 28 Nov 22:15:34 22:19:59 53° 73° (ENE) 22:24:26 437.505/2401.250
CUSAT 1 28 Nov 22:17:01 22:20:38 18° 75° (ENE) 22:24:53 437.405
50 SAT 28 Nov 22:17:47 22:21:46 63° 259° (W) 22:25:47 437.505
QB50P1 28 Nov 22:18:55 22:22:14 22° 95° (E) 22:25:32 145.935-145.965
CINEMA 3 28 Nov 22:20:34 22:22:58 15° 267° (W) 22:25:20 145.822/145.860
UKube-1 28 Nov 22:22:13 22:24:41 15° 267° (W) 22:27:10 .
FUNcube-1 28 Nov 22:29:17 22:32:40 24° 265° (W) 22:36:03 145.935
AISAT 28 Nov 22:34:37 22:38:40 34° 262° (W) 22:42:45 437.250
CUBEBUG 1 28 Nov 22:35:18 22:39:45 84° 76° (ENE) 22:44:12 437.445
ISS 28 Nov 22:39:10 22:42:23 54° 324° (NW) 22:45:37 145.825
POPSAT HIP 1 28 Nov 22:43:36 22:47:38 43° 99° (E) 22:51:38 437.405
HUMSAT D 28 Nov 22:51:08 22:54:20 22° 265° (W) 22:57:32 437.325/437.525
TIGRISAT 28 Nov 22:52:13 22:56:42 82° 103° (ESE) 23:01:16 435.000
DANDE 28 Nov 22:55:46 23:00:16 34° 78° (ENE) 23:06:05 436.750
UNISAT 6 28 Nov 23:07:42 23:12:09 66° 285° (WNW) 23:16:41 437.425
AUBIESAT-1 28 Nov 23:11:14 23:13:11 13° 56° (ENE) 23:15:12 437.475
M-CUBED/EXP-1 PRIME 28 Nov 23:17:52 23:20:33 17° 58° (ENE) 23:23:21 437.505
POLYITAN 1 28 Nov 23:19:00 23:23:13 70° 285° (WNW) 23:27:26 437.675
QB50P2 28 Nov 23:19:45 23:23:58 69° 285° (WNW) 23:28:10 145.880/145.840
DUCHIFAT 1 28 Nov 23:23:43 23:27:53 63° 285° (WNW) 23:32:02 145.980
TISAT 1 28 Nov 23:26:59 23:31:15 79° 76° (ENE) 23:35:31 437.305
ANTELSAT 28 Nov 23:37:14 23:41:13 32° 289° (WNW) 23:45:17 437.575/2403.000
NANOSAT C BR1 28 Nov 23:43:55 23:47:48 36° 288° (WNW) 23:51:39 145.865
SPROUT 28 Nov 23:46:44 23:51:02 71° 258° (WSW) 23:55:21 437.525
BUGSAT 1 28 Nov 23:48:20 23:52:07 38° 288° (WNW) 23:55:50 437.445
MaSat-1 28 Nov 23:53:33 23:55:52 65° 64° (ENE) 23:58:17 437.345
QB50P1 28 Nov 23:54:30 23:58:07 28° 290° (WNW) 00:01:43 145.935-145.965
ESTCUBE 1 28 Nov 23:54:51 23:57:09 14° 268° (W) 23:59:28 437.505/2401.250
CUSAT 1 28 Nov 23:58:39 00:03:43 58° 263° (W) 00:10:25 437.405
RS-15 29 Nov 00:04:39 00:15:43 59° 52° (NE) 00:27:14 29.354- 29.394
ITUPSAT 1 29 Nov 00:05:13 00:09:22 30° 69° (ENE) 00:13:33 437.325
SWISSCUBE 29 Nov 00:14:29 00:18:58 41° 71° (ENE) 00:23:28 437.505
JUGNU 29 Nov 00:16:13 00:17:51 11° 182° (S) 00:19:29 437.505
ISS 29 Nov 00:17:56 00:19:37 13° 343° (NNW) 00:21:18 145.825
POPSAT HIP 1 29 Nov 00:20:42 00:23:11 16° 294° (WNW) 00:25:40 437.405
SRMSAT 29 Nov 00:33:11 00:34:42 11° 175° (S) 00:36:13 437.500
YUBILEINY 29 Nov 00:36:05 00:41:16 17° 78° (ENE) 00:46:27 435.215
DANDE 29 Nov 00:39:16 00:43:41 30° 265° (W) 00:49:16 436.750
AUBIESAT-1 29 Nov 00:43:26 00:47:30 65° 254° (WSW) 00:52:00 437.475
BEESAT 29 Nov 00:44:30 00:49:16 78° 75° (ENE) 00:54:05 436.000
M-CUBED/EXP-1 PRIME 29 Nov 00:51:09 00:55:07 47° 257° (WSW) 00:59:27 437.505
ITAMSAT 1 29 Nov 01:06:12 01:07:58 12° 90° (E) 01:09:44 435.822/435.867
STARS 29 Nov 01:10:11 01:13:17 19° 66° (ENE) 01:16:23 437.465
